Nogales, AZ

4:06 AM MST on March 24, 2017 (GMT -0700)
Nogales International

Weather History for KOLS - November, 2013

Change the Weather History Date:

Saturday, November 2, 2013

  Actual Average (KFHU) Record (KFHU)
Temperature  
Mean Temperature 64 °F -  
Max Temperature 82 °F 69 °F 82 °F (2005)
Min Temperature 45 °F 46 °F 33 °F (2004)
Degree Days  
Heating Degree Days 2    
Growing Degree Days 14 (Base 50)    
Moisture  
Dew Point 19 °F    
Average Humidity 20    
Maximum Humidity 39    
Minimum Humidity 8    
Precipitation  
Precipitation 0.00 in - - ()
Sea Level Pressure  
Sea Level Pressure 29.92 in    
Wind  
Wind Speed 6 mph (SSE)    
Max Wind Speed 14 mph    
Max Gust Speed 23 mph    
Visibility 10 miles    
Events      
Averages and records for this station are not official NWS values.
T = Trace of Precipitation, MM = Missing Value Source: NWS Daily Summary

Daily Weather History Graph

Daily Weather History Graph

Search for Another Location

Airport or City:

Trip Planner

Search our weather history database for the weather conditions in past years. The results will help you decide how hot, cold, wet, or windy it might be!

Date:

Astronomy

Nov. 02, 2013 Rise Set
Actual Time 6:40 AM MST 5:33 PM MST
Civil Twilight 6:15 AM MST 5:58 PM MST
Nautical Twilight 5:46 AM MST 6:27 PM MST
Astronomical Twilight 5:17 AM MST 6:55 PM MST
Moon 5:44 AM MST (11/2) 5:05 PM MST (11/2)
Length of Visible Light 11h 43m
Length of Day
10h 52m
Waning Crescent, 1% of the Moon is Illuminated
Nov 2
Waning Crescent
Nov 3
New
Nov 9
First Quarter
Nov 17
Full
Nov 25
Last Quarter

Hourly Weather History & Observations

Time (MST) Temp. Windchill Dew Point Humidity Pressure Visibility Wind Dir Wind Speed Gust Speed Precip Events Conditions
12:54 AM 45.0 °F 41.8 °F 16.0 °F 31% 29.99 in 10.0 mi ESE 5.8 mph - N/A   Clear
1:54 AM 46.9 °F - 16.0 °F 29% 29.98 in 10.0 mi ENE 4.6 mph - N/A   Clear
2:54 AM 48.9 °F - 16.0 °F 27% 29.95 in 10.0 mi NE 6.9 mph - N/A   Clear
3:54 AM 46.0 °F 42.5 °F 16.0 °F 30% 29.96 in 10.0 mi NE 6.9 mph - N/A   Clear
4:54 AM 48.0 °F - 15.1 °F 27% 29.96 in 10.0 mi NNE 4.6 mph - N/A   Clear
5:54 AM 45.0 °F - 15.1 °F 30% 29.99 in 10.0 mi Calm Calm - N/A   Clear
6:54 AM 46.9 °F - 15.1 °F 28% 30.01 in 10.0 mi NNE 5.8 mph - N/A   Clear
7:54 AM 57.9 °F - 16.0 °F 19% 30.00 in 10.0 mi Calm Calm - N/A   Clear
8:54 AM 64.0 °F - 14.0 °F 14% 29.99 in 10.0 mi SSE 3.5 mph - N/A   Clear
9:54 AM 70.0 °F - 15.1 °F 12% 29.98 in 10.0 mi Variable 4.6 mph - N/A   Clear
10:54 AM 75.9 °F - 12.0 °F 9% 29.97 in 10.0 mi SW 4.6 mph - N/A   Clear
11:54 AM 80.1 °F - 12.9 °F 8% 29.94 in 10.0 mi South 11.5 mph 20.7 mph N/A   Clear
12:54 PM 81.0 °F - 12.9 °F 8% 29.91 in 10.0 mi Variable 5.8 mph - N/A   Clear
1:54 PM 82.9 °F - 15.1 °F 8% 29.86 in 10.0 mi South 10.4 mph - N/A   Clear
2:54 PM 82.0 °F - 15.1 °F 8% 29.84 in 10.0 mi South 8.1 mph - N/A   Clear
3:54 PM 81.0 °F - 16.0 °F 9% 29.84 in 10.0 mi Variable 5.8 mph - N/A   Clear
4:54 PM 79.0 °F - 12.9 °F 8% 29.83 in 10.0 mi SSW 10.4 mph - N/A   Clear
5:54 PM 71.1 °F - 17.1 °F 13% 29.86 in 10.0 mi SW 3.5 mph - N/A   Clear
6:54 PM 66.0 °F - 16.0 °F 15% 29.88 in 10.0 mi Variable 4.6 mph - N/A   Mostly Cloudy
7:54 PM 69.1 °F - 18.0 °F 14% 29.85 in 10.0 mi East 3.5 mph - N/A   Mostly Cloudy
8:54 PM 66.0 °F - 27.0 °F 23% 29.85 in 10.0 mi WSW 5.8 mph - N/A   Mostly Cloudy
9:45 PM 64.0 °F - 33.1 °F 31% 30.04 in 10.0 mi West 13.8 mph 23.0 mph N/A   Scattered Clouds
9:54 PM 63.0 °F - 33.1 °F 33% 29.88 in 10.0 mi West 11.5 mph - N/A   Partly Cloudy
10:54 PM 61.0 °F - 35.1 °F 38% 29.89 in 10.0 mi SE 4.6 mph - N/A   Overcast
11:54 PM 61.0 °F - 36.0 °F 39% 29.86 in 10.0 mi Calm Calm - N/A   Mostly Cloudy